• în România
  • Lista ţărilor
  • Pe 7 zile
  • Temperatura apei
  • Hartă satelitară
  • Meteo pe hartă
  • Widget-uri
  • user-avatar
    Intrare

    Meteo pe oră la Igls

    Astăzi, 22 Februarie, Miercuri

    Timp Temperatura Precipitaţii Vânt Presiune Umiditate
    00:00 +3°C° 0,3 mm 2 m/s 683 mmHg 97%
    01:00 +3°C° 0,3 mm 1 m/s 683 mmHg 97%
    02:00 +3°C° 0,1 mm 1 m/s 683 mmHg 97%
    03:00 +3°C° 0,1 mm 1 m/s 683 mmHg 97%
    04:00 +2°C° 0,1 mm 1 m/s 682 mmHg 97%
    05:00 +2°C° 0 mm 1 m/s 682 mmHg 97%
    06:00 +2°C° 0 mm 1 m/s 682 mmHg 97%
    07:00 +1°C° 0 mm 1 m/s 682 mmHg 97%
    08:00 +4°C° 0 mm 1 m/s 682 mmHg 96%
    09:00 +6°C° 0 mm 1 m/s 682 mmHg 96%
    10:00 +8°C° 0 mm 1 m/s 683 mmHg 96%
    11:00 +9°C° 0 mm 1 m/s 683 mmHg 95%
    12:00 +9°C° 0 mm 1 m/s 683 mmHg 95%
    13:00 +10°C° 0 mm 1 m/s 682 mmHg 94%
    14:00 +9°C° 0 mm 1 m/s 682 mmHg 95%
    15:00 +9°C° 0 mm 1 m/s 682 mmHg 96%
    16:00 +9°C° 0 mm 1 m/s 682 mmHg 96%
    17:00 +7°C° 0 mm 1 m/s 682 mmHg 96%
    18:00 +5°C° 0 mm 2 m/s 682 mmHg 96%
    19:00 +3°C° 0 mm 2 m/s 681 mmHg 96%
    20:00 +2°C° 0 mm 2 m/s 681 mmHg 95%
    21:00 +2°C° 0 mm 2 m/s 681 mmHg 93%
    22:00 +1°C° 0 mm 2 m/s 681 mmHg 92%
    23:00 +1°C° 0 mm 2 m/s 681 mmHg 91%

    Mâine, 23 Februarie, Joi

    Timp Temperatura Precipitaţii Vânt Presiune Umiditate
    00:00 +1°C° 0 mm 2 m/s 681 mmHg 91%
    01:00 +1°C° 0 mm 2 m/s 681 mmHg 90%
    02:00 +1°C° 0 mm 2 m/s 681 mmHg 89%
    03:00 +1°C° 0 mm 2 m/s 681 mmHg 88%
    04:00 +1°C° 0 mm 2 m/s 680 mmHg 87%
    05:00 +1°C° 0 mm 2 m/s 680 mmHg 86%
    06:00 +1°C° 0 mm 2 m/s 680 mmHg 85%
    07:00 +1°C° 0 mm 2 m/s 680 mmHg 84%
    08:00 +3°C° 0 mm 2 m/s 680 mmHg 84%
    09:00 +5°C° 0 mm 2 m/s 680 mmHg 85%
    10:00 +7°C° 0 mm 2 m/s 680 mmHg 85%
    11:00 +8°C° 0 mm 2 m/s 680 mmHg 86%
    12:00 +9°C° 0 mm 2 m/s 679 mmHg 86%
    13:00 +10°C° 0 mm 2 m/s 679 mmHg 86%
    14:00 +9°C° 0 mm 2 m/s 678 mmHg 88%
    15:00 +9°C° 0 mm 2 m/s 678 mmHg 90%
    16:00 +8°C° 0 mm 2 m/s 677 mmHg 93%
    17:00 +7°C° 0 mm 2 m/s 677 mmHg 93%
    18:00 +6°C° 0 mm 2 m/s 677 mmHg 94%
    19:00 +4°C° 0 mm 3 m/s 677 mmHg 95%
    20:00 +3°C° 0 mm 3 m/s 677 mmHg 95%
    21:00 +3°C° 0 mm 3 m/s 677 mmHg 94%
    22:00 +3°C° 0 mm 3 m/s 677 mmHg 94%
    23:00 +4°C° 0 mm 2 m/s 677 mmHg 94%

    Poimâine, 24 Februarie, Vineri

    Timp Temperatura Precipitaţii Vânt Presiune Umiditate
    00:00 +3°C° 0 mm 2 m/s 676 mmHg 94%
    01:00 +3°C° 0 mm 2 m/s 676 mmHg 93%
    02:00 +3°C° 0,3 mm 2 m/s 676 mmHg 94%
    03:00 +3°C° 0,3 mm 2 m/s 676 mmHg 95%
    04:00 +3°C° 0,3 mm 2 m/s 676 mmHg 95%
    05:00 +3°C° 1 mm 2 m/s 677 mmHg 96%
    06:00 +4°C° 1 mm 1 m/s 677 mmHg 96%
    07:00 +4°C° 1 mm 1 m/s 677 mmHg 97%
    08:00 +3°C° 0,9 mm 2 m/s 678 mmHg 96%
    09:00 +3°C° 0,9 mm 2 m/s 678 mmHg 96%
    10:00 +3°C° 0,9 mm 2 m/s 678 mmHg 95%
    11:00 +3°C° 0,5 mm 2 m/s 678 mmHg 95%
    12:00 +3°C° 0,5 mm 2 m/s 678 mmHg 94%
    13:00 +3°C° 0,5 mm 2 m/s 678 mmHg 93%
    14:00 +3°C° 0,3 mm 2 m/s 678 mmHg 93%
    15:00 +3°C° 0,3 mm 2 m/s 678 mmHg 93%
    16:00 +3°C° 0,3 mm 2 m/s 679 mmHg 93%
    17:00 +2°C° 0,2 mm 2 m/s 679 mmHg 94%
    18:00 +1°C° 0,2 mm 2 m/s 680 mmHg 95%
    19:00 -1°C° 0,2 mm 2 m/s 680 mmHg 96%
    20:00 -1°C° 0,3 mm 2 m/s 681 mmHg 96%
    21:00 -2°C° 0,3 mm 2 m/s 682 mmHg 96%
    22:00 -2°C° 0,3 mm 2 m/s 682 mmHg 96%
    23:00 -2°C° 0,2 mm 2 m/s 683 mmHg 96%

    25 Februarie, Sâmbătă

    Timp Temperatura Precipitaţii Vânt Presiune Umiditate
    00:00 -1°C° 0,2 mm 1 m/s 683 mmHg 96%
    01:00 -1°C° 0,2 mm 1 m/s 684 mmHg 96%
    02:00 -2°C° 0,1 mm 1 m/s 684 mmHg 96%
    03:00 -2°C° 0,1 mm 1 m/s 684 mmHg 96%
    04:00 -3°C° 0,1 mm 1 m/s 684 mmHg 96%
    05:00 -3°C° 0 mm 1 m/s 684 mmHg 96%
    06:00 -4°C° 0 mm 1 m/s 685 mmHg 96%
    07:00 -4°C° 0 mm 1 m/s 685 mmHg 95%
    08:00 -2°C° 0 mm 1 m/s 685 mmHg 93%
    09:00 0°C° 0 mm 1 m/s 686 mmHg 90%
    10:00 +2°C° 0 mm 1 m/s 687 mmHg 87%
    11:00 +3°C° 0 mm 1 m/s 686 mmHg 87%
    12:00 +4°C° 0 mm 0 m/s 686 mmHg 86%
    13:00 +5°C° 0 mm 0 m/s 686 mmHg 85%
    14:00 +5°C° 0 mm 0 m/s 686 mmHg 87%
    15:00 +5°C° 0 mm 0 m/s 686 mmHg 89%
    16:00 +5°C° 0 mm 0 m/s 686 mmHg 91%
    17:00 +3°C° 0 mm 0 m/s 685 mmHg 91%
    18:00 +1°C° 0 mm 1 m/s 684 mmHg 92%
    19:00 -1°C° 0 mm 1 m/s 684 mmHg 93%
    20:00 -1°C° 0 mm 1 m/s 684 mmHg 90%
    21:00 0°C° 0 mm 1 m/s 685 mmHg 87%
    22:00 -1°C° 0 mm 2 m/s 685 mmHg 84%
    23:00 -1°C° 0 mm 2 m/s 685 mmHg 83%

    26 Februarie, Duminică

    Timp Temperatura Precipitaţii Vânt Presiune Umiditate
    00:00 -1°C° 0 mm 2 m/s 685 mmHg 83%
    01:00 +1°C° 0 mm 2 m/s 685 mmHg 83%
    02:00 +1°C° 0 mm 2 m/s 685 mmHg 83%
    03:00 +2°C° 0 mm 1 m/s 684 mmHg 82%
    04:00 +2°C° 0 mm 1 m/s 684 mmHg 82%
    05:00 +2°C° 0 mm 1 m/s 684 mmHg 81%
    06:00 +2°C° 0 mm 1 m/s 684 mmHg 80%
    07:00 +2°C° 0 mm 1 m/s 684 mmHg 79%
    08:00 +4°C° 0 mm 1 m/s 685 mmHg 82%
    09:00 +6°C° 0 mm 1 m/s 686 mmHg 85%
    10:00 +8°C° 0 mm 1 m/s 686 mmHg 88%
    11:00 +9°C° 0 mm 1 m/s 686 mmHg 88%
    12:00 +10°C° 0 mm 1 m/s 686 mmHg 88%
    13:00 +10°C° 0 mm 1 m/s 686 mmHg 87%
    14:00 +10°C° 0 mm 1 m/s 686 mmHg 89%
    15:00 +9°C° 0 mm 0 m/s 686 mmHg 91%
    16:00 +9°C° 0 mm 0 m/s 685 mmHg 93%
    17:00 +6°C° 0 mm 0 m/s 685 mmHg 93%
    18:00 +3°C° 0 mm 0 m/s 684 mmHg 94%
    19:00 +1°C° 0 mm 1 m/s 684 mmHg 95%
    20:00 +2°C° 0 mm 1 m/s 684 mmHg 93%
    21:00 +2°C° 0 mm 1 m/s 684 mmHg 91%
    22:00 +3°C° 0 mm 1 m/s 684 mmHg 89%
    23:00 +3°C° 0 mm 1 m/s 684 mmHg 89%

    27 Februarie, Luni

    Timp Temperatura Precipitaţii Vânt Presiune Umiditate
    00:00 +2°C° 0 mm 2 m/s 684 mmHg 89%
    01:00 +3°C° 0 mm 2 m/s 684 mmHg 90%
    02:00 +3°C° 0 mm 2 m/s 684 mmHg 90%
    03:00 +2°C° 0 mm 2 m/s 684 mmHg 90%
    04:00 +2°C° 0 mm 2 m/s 684 mmHg 90%
    05:00 +2°C° 0 mm 2 m/s 684 mmHg 90%
    06:00 +2°C° 0 mm 2 m/s 684 mmHg 89%
    07:00 +2°C° 0 mm 2 m/s 684 mmHg 89%
    08:00 +4°C° 0 mm 2 m/s 684 mmHg 88%
    09:00 +6°C° 0 mm 2 m/s 684 mmHg 88%
    10:00 +8°C° 0 mm 2 m/s 685 mmHg 87%
    11:00 +9°C° 0 mm 2 m/s 684 mmHg 86%
    12:00 +10°C° 0 mm 2 m/s 684 mmHg 85%
    13:00 +12°C° 0 mm 2 m/s 683 mmHg 84%
    14:00 +10°C° 0 mm 2 m/s 683 mmHg 86%
    15:00 +10°C° 0 mm 2 m/s 682 mmHg 88%
    16:00 +10°C° 0 mm 2 m/s 682 mmHg 90%
    17:00 +8°C° 0 mm 2 m/s 682 mmHg 91%
    18:00 +6°C° 0 mm 2 m/s 682 mmHg 92%
    19:00 +4°C° 0 mm 2 m/s 682 mmHg 94%
    20:00 +4°C° 0 mm 2 m/s 682 mmHg 94%
    21:00 +4°C° 0 mm 2 m/s 682 mmHg 93%
    22:00 +4°C° 0 mm 2 m/s 682 mmHg 93%
    23:00 +3°C° 0 mm 2 m/s 682 mmHg 93%
    Arată mai mult